Voltar ao catálogo

STARLINK-32418

AtivoComunicaçõesVLEO
NORAD 62429·PAYLOAD·🇺🇸 United States

Lançado Dec 23, 2024 de Cape Canaveral Space Force Station

Loading…

Próximas Passagens (próximas 24 horas)

TLE

AtualizadoSource: CelesTrak SupGP

Época: Sep 14, 2026, 20:51 UTC

1 62429C 24249W   26257.86923611 -.00021042  00000+0 -76210-3 0  2578
2 62429  43.0034 325.6333 0001684 272.6720 200.3951 15.27590015    15

Acompanhe STARLINK-32418 em tempo real com AllMySat

Download on the App Store